Altus AFB, OK

1:17 PM CDT on May 24, 2017 (GMT -0500)
Altus Air Force Base

Weather History for KLTS - November, 2012

Change the Weather History Date:

Thursday, November 1, 2012

  Actual Average Record
Temperature  
Mean Temperature 66 °F -  
Max Temperature 86 °F 64 °F 91 °F (2001)
Min Temperature 45 °F 43 °F 31 °F (2014)
Growing Degree Days 16 (Base 50)    
Moisture  
Dew Point 41 °F    
Average Humidity 49    
Maximum Humidity 85    
Minimum Humidity 21    
Precipitation  
Precipitation 0.00 in - - ()
Sea Level Pressure  
Sea Level Pressure 29.95 in    
Wind  
Wind Speed 5 mph (SSW)    
Max Wind Speed 14 mph    
Max Gust Speed 20 mph    
Visibility 10 miles    
Events      
Averages and records for this station are not official NWS values.
T = Trace of Precipitation, MM = Missing Value Source: NWS Daily Summary

Daily Weather History Graph

Daily Weather History Graph

Search for Another Location

Airport or City:

Trip Planner

Search our weather history database for the weather conditions in past years. The results will help you decide how hot, cold, wet, or windy it might be!

Date:

Astronomy

Nov. 01, 2012 Rise Set
Actual Time 7:58 AM CDT 6:42 PM CDT
Civil Twilight 7:31 AM CDT 7:08 PM CDT
Nautical Twilight 7:02 AM CDT 7:38 PM CDT
Astronomical Twilight 6:32 AM CDT 8:08 PM CDT
Moon 8:46 PM CDT (11/1) 10:26 AM CDT (11/1)
Length of Visible Light 11h 36m
Length of Day
10h 44m
Waning Gibbous, 93% of the Moon is Illuminated
Nov 1
Waning Gibbous
Nov 6
Last Quarter
Nov 13
New
Nov 20
First Quarter
Nov 28
Full

Hourly Weather History & Observations

Time (CDT) Temp. Dew Point Humidity Pressure Visibility Wind Dir Wind Speed Gust Speed Precip Events Conditions
12:55 AM 53.6 °F 41.7 °F 64% 30.00 in 10.0 mi ESE 3.5 mph - N/A   Clear
1:55 AM 50.9 °F 41.4 °F 70% 30.00 in 10.0 mi ESE 3.5 mph - N/A   Clear
2:55 AM 49.6 °F 41.9 °F 75% 29.99 in 10.0 mi East 3.5 mph - N/A   Clear
3:55 AM 51.6 °F 42.8 °F 72% 29.98 in 10.0 mi Calm Calm - N/A   Clear
4:55 AM 45.3 °F 41.0 °F 85% 29.98 in 10.0 mi Calm Calm - N/A   Clear
5:55 AM 46.4 °F 41.0 °F 81% 29.98 in 10.0 mi Calm Calm - N/A   Clear
6:55 AM 47.1 °F 41.4 °F 80% 29.99 in 10.0 mi Calm Calm - N/A   Clear
7:55 AM 47.8 °F 41.0 °F 77% 30.00 in 10.0 mi Calm Calm - N/A   Clear
8:55 AM 50.2 °F 40.5 °F 69% 30.02 in 10.0 mi NW 4.6 mph - N/A   Clear
9:55 AM 57.9 °F 40.8 °F 53% 30.03 in 10.0 mi WNW 3.5 mph - N/A   Clear
10:55 AM 66.0 °F 41.5 °F 41% 30.02 in 10.0 mi WNW 8.1 mph - N/A   Clear
11:55 AM 73.6 °F 42.1 °F 32% 30.00 in 10.0 mi WSW 10.4 mph - N/A   Clear
12:55 PM 77.9 °F 41.4 °F 27% 29.98 in 10.0 mi WSW 11.5 mph 18.4 mph N/A   Clear
1:55 PM 81.5 °F 42.1 °F 25% 29.94 in 10.0 mi WSW 12.7 mph 19.6 mph N/A   Clear
2:55 PM 84.9 °F 41.7 °F 22% 29.91 in 10.0 mi West 13.8 mph - N/A   Clear
3:55 PM 86.2 °F 41.5 °F 21% 29.89 in 10.0 mi WSW 9.2 mph - N/A   Clear
4:55 PM 86.4 °F 42.1 °F 21% 29.88 in 10.0 mi South 3.5 mph - N/A   Clear
5:55 PM 85.1 °F 41.5 °F 22% 29.87 in 10.0 mi South 4.6 mph - N/A   Clear
6:55 PM 74.8 °F 41.7 °F 30% 29.88 in 10.0 mi South 4.6 mph - N/A   Clear
7:55 PM 68.9 °F 40.1 °F 35% 29.89 in 10.0 mi SSW 8.1 mph - N/A   Clear
8:55 PM 68.0 °F 41.2 °F 38% 29.90 in 10.0 mi South 11.5 mph - N/A   Clear
9:55 PM 59.4 °F 39.2 °F 47% 29.90 in 10.0 mi South 9.2 mph - N/A   Clear
10:55 PM 60.8 °F 38.7 °F 44% 29.90 in 10.0 mi South 8.1 mph - N/A   Clear
11:55 PM 58.3 °F 39.2 °F 49% 29.89 in 10.0 mi South 6.9 mph - N/A   Clear